View from above orbital plane
|
View from above satellite
|
Ground track
|
The orbit data is extracted from the following two-line orbital elements,
1 39444U 13066AE 21058.40836271 .00000377 00000-0 52083-4 0 9996
2 39444 97.5761 50.8343 0058453 151.5193 208.9236 14.82325430391133
Epoch (UTC): | 27 February 2021 09:48:02 |
Eccentricity: | 0.0058453 |
inclination: | 97.5761° |
perigee height: | 581 km |
apogee height: | 663 km |
right ascension of ascending node: | 50.8343° |
argument of perigee: | 151.5193° |
revolutions per day: | 14.82325430 |
mean anomaly at epoch: | 208.9236° |
orbit number at epoch: | 39113 |
The dashed part of the orbit path shows where the satellite is in the earth's shadow,
|
|